Location: Andiroba
(19.8650°S, 43.9258°W)
Time: 01:25:12
(UTC+00:00)

Hubble Space Telescope - Pass Details

Date: 15 June 2024
Orbit: 509 x 513 km, 28.5° (Epoch: 24 July)

Event Time Altitude Azimuth Distance (km) Brightness Sun altitude
Exits shadow 08:07:22 17° 319° (NW) 1,320 2.5 -18.5°
Maximum altitude 08:07:56 18° 330° (NNW) 1,297 2.6 -18.4°
Drops below altitude 10° 08:10:39 10° 14° (NNE) 1,708 3.8 -17.8°
Sets 08:13:25 0° 33° (NNE) 2,590 5.1 -17.2°
